West Chatham, MA

8:14 PM EST on February 25, 2017 (GMT -0500)
Chatham Municipal

Weather History for KCQX - March, 2013

Change the Weather History Date:

Tuesday, March 19, 2013

  Actual Average Record
Temperature  
Mean Temperature 37 °F -  
Max Temperature 45 °F 41 °F 64 °F (2012)
Min Temperature 30 °F 30 °F 19 °F (2015)
Degree Days  
Heating Degree Days 28    
Moisture  
Dew Point 36 °F    
Average Humidity 94    
Maximum Humidity 100    
Minimum Humidity 85    
Precipitation  
Precipitation 0.52 in - - ()
Sea Level Pressure  
Sea Level Pressure 29.77 in    
Wind  
Wind Speed 14 mph (ESE)    
Max Wind Speed 20 mph    
Max Gust Speed 34 mph    
Visibility 4 miles    
Events Fog , Rain , Snow    
Averages and records for this station are not official NWS values.
T = Trace of Precipitation, MM = Missing Value Source: NWS Daily Summary

Daily Weather History Graph

Daily Weather History Graph

Search for Another Location

Airport or City:

Trip Planner

Search our weather history database for the weather conditions in past years. The results will help you decide how hot, cold, wet, or windy it might be!

Date:

Astronomy

Mar. 19, 2013 Rise Set
Actual Time 6:44 AM EDT 6:51 PM EDT
Civil Twilight 6:16 AM EDT 7:19 PM EDT
Nautical Twilight 5:44 AM EDT 7:51 PM EDT
Astronomical Twilight 5:11 AM EDT 8:24 PM EDT
Moon 11:27 AM EDT (3/19) 1:40 AM EDT (3/19)
Length of Visible Light 13h 02m
Length of Day
12h 06m
Waxing Crescent, 49% of the Moon is Illuminated
Mar 19
Waxing Crescent
Mar 19
First Quarter
Mar 27
Full
Apr 3
Last Quarter
Apr 10
New

Hourly Weather History & Observations

Time (EDT) Temp. Windchill Dew Point Humidity Pressure Visibility Wind Dir Wind Speed Gust Speed Precip Events Conditions
12:33 AM 30.2 °F 21.3 °F 28.4 °F 93% 30.25 in 10.0 mi East 10.4 mph 18.4 mph N/A   Overcast
12:47 AM 30.2 °F 21.9 °F 28.4 °F 93% 30.24 in 2.5 mi East 9.2 mph 18.4 mph 0.00 in Snow Light Snow
12:59 AM 30.2 °F 21.3 °F 28.4 °F 93% 30.24 in 2.0 mi East 10.4 mph - 0.00 in Snow Light Snow
1:06 AM 32.0 °F 23.0 °F 28.4 °F 87% 30.23 in 1.8 mi East 11.5 mph - 0.00 in Snow Light Snow
1:15 AM 32.0 °F 22.5 °F 28.4 °F 87% 30.22 in 1.8 mi East 12.7 mph 18.4 mph 0.00 in Snow Light Snow
1:59 AM 32.0 °F 22.1 °F 30.2 °F 93% 30.17 in 2.5 mi East 13.8 mph 21.9 mph 0.00 in Snow Light Snow
2:18 AM 32.0 °F 20.5 °F 30.2 °F 93% 30.15 in 1.8 mi East 18.4 mph 26.5 mph 0.01 in Snow Light Snow
2:52 AM 32.0 °F 20.1 °F 30.0 °F 92% 30.12 in 2.0 mi East 19.6 mph 31.1 mph 0.01 in Snow Light Snow
3:07 AM 32.0 °F 20.5 °F 30.2 °F 93% 30.09 in 5.0 mi East 18.4 mph 27.6 mph 0.00 in Snow Light Snow
3:33 AM 33.8 °F 23.5 °F 30.2 °F 87% 30.07 in 10.0 mi East 16.1 mph 27.6 mph 0.00 in   Overcast
3:43 AM 33.8 °F 23.2 °F 30.2 °F 87% 30.07 in 8.0 mi East 17.3 mph 25.3 mph 0.01 in Rain Rain
3:52 AM 33.1 °F 22.6 °F 28.9 °F 85% 30.07 in 8.0 mi East 16.1 mph 28.8 mph 0.02 in Rain Light Freezing Rain
4:24 AM 33.8 °F 23.2 °F 30.2 °F 87% 30.05 in 6.0 mi East 17.3 mph 26.5 mph 0.03 in Rain Rain
4:52 AM 34.0 °F 23.8 °F 30.0 °F 85% 30.05 in 7.0 mi East 16.1 mph 27.6 mph 0.07 in Rain Rain
5:21 AM 33.8 °F 23.2 °F 30.2 °F 87% 30.03 in 5.0 mi East 17.3 mph 27.6 mph 0.05 in Rain Rain
5:52 AM 34.0 °F 23.0 °F 30.9 °F 89% 30.01 in 5.0 mi East 18.4 mph 28.8 mph 0.11 in Rain Rain
6:52 AM 35.1 °F 25.9 °F 32.0 °F 89% 30.01 in 5.0 mi East 13.8 mph 29.9 mph 0.05 in Rain Light Rain
7:33 AM 35.6 °F 25.5 °F 33.8 °F 93% 30.00 in 2.5 mi East 17.3 mph 26.5 mph 0.02 in Rain Light Rain
7:52 AM 36.0 °F 27.1 °F 33.1 °F 89% 29.99 in 4.0 mi East 13.8 mph 26.5 mph 0.03 in Rain Light Rain
8:52 AM 37.0 °F 27.4 °F 35.1 °F 93% 29.94 in 4.0 mi East 17.3 mph 33.4 mph 0.03 in Rain Light Rain
9:52 AM 37.9 °F 29.2 °F 36.0 °F 93% 29.89 in 4.0 mi East 15.0 mph 28.8 mph 0.03 in Rain Light Rain
10:31 AM 37.4 °F 27.8 °F 37.4 °F 100% 29.86 in 2.5 mi East 17.3 mph 28.8 mph 0.03 in Rain Light Rain
10:41 AM 39.2 °F 30.2 °F 37.4 °F 93% 29.84 in 3.0 mi East 17.3 mph 28.8 mph 0.03 in Rain Light Rain
10:48 AM 39.2 °F 30.2 °F 37.4 °F 93% 29.84 in 2.0 mi East 17.3 mph 25.3 mph 0.05 in Rain Rain
10:52 AM 39.0 °F 29.9 °F 37.0 °F 93% 29.84 in 2.0 mi East 17.3 mph 25.3 mph 0.05 in Rain Light Rain
11:41 AM 39.2 °F 29.8 °F 37.4 °F 93% 29.80 in 2.5 mi East 18.4 mph 26.5 mph 0.04 in Rain Light Rain
11:52 AM 39.9 °F 32.1 °F 37.9 °F 93% 29.80 in 2.5 mi East 13.8 mph 26.5 mph 0.06 in Rain Rain
12:01 PM 39.2 °F 30.2 °F 37.4 °F 93% 29.78 in 3.0 mi East 17.3 mph 25.3 mph 0.01 in Rain Light Rain
12:52 PM 41.0 °F 32.8 °F 39.0 °F 93% 29.73 in 4.0 mi East 16.1 mph 25.3 mph 0.02 in Rain Light Rain
1:19 PM 41.0 °F 33.5 °F 39.2 °F 93% 29.68 in 2.5 mi East 13.8 mph 28.8 mph 0.01 in Rain Light Rain
1:34 PM 41.0 °F 32.5 °F 39.2 °F 93% 29.66 in 3.0 mi East 17.3 mph 34.5 mph 0.01 in Rain Light Rain
1:52 PM 42.1 °F 34.2 °F 39.9 °F 92% 29.65 in 4.0 mi East 16.1 mph 31.1 mph 0.01 in Rain Light Rain
2:52 PM 42.1 °F 33.3 °F 41.0 °F 96% 29.60 in 2.5 mi East 19.6 mph 32.2 mph 0.01 in Rain Light Rain
3:02 PM 42.8 °F 34.8 °F 41.0 °F 93% 29.59 in 3.0 mi East 17.3 mph 29.9 mph 0.01 in Rain Light Rain
3:18 PM 42.8 °F 34.8 °F 42.8 °F 100% 29.58 in 2.5 mi ESE 17.3 mph 29.9 mph 0.01 in Rain Light Rain
3:26 PM 42.8 °F 34.8 °F 42.8 °F 100% 29.58 in 3.0 mi ESE 17.3 mph 29.9 mph 0.01 in Rain Light Rain
3:34 PM 42.8 °F 35.4 °F 42.8 °F 100% 29.58 in 2.5 mi ESE 15.0 mph 32.2 mph 0.01 in Rain Light Rain
3:52 PM 43.0 °F 36.0 °F 43.0 °F 100% 29.58 in 2.0 mi SE 13.8 mph 21.9 mph 0.01 in Rain Light Rain
3:54 PM 42.8 °F 36.2 °F 42.8 °F 100% 29.57 in 1.8 mi ESE 12.7 mph 21.9 mph 0.00 in Rain Light Rain
4:30 PM 44.6 °F 39.2 °F 42.8 °F 93% 29.55 in 2.5 mi ESE 10.4 mph - 0.01 in   Overcast
4:48 PM 44.6 °F 38.8 °F 44.6 °F 100% 29.54 in 1.8 mi SE 11.5 mph - 0.01 in   Overcast
4:52 PM 44.1 °F 39.5 °F 44.1 °F 100% 29.55 in 1.5 mi SE 8.1 mph 17.3 mph 0.01 in   Overcast
5:13 PM 44.6 °F 40.7 °F 44.6 °F 100% 29.53 in 0.5 mi SSE 6.9 mph - N/A Fog Fog
5:24 PM 44.6 °F 40.7 °F 44.6 °F 100% 29.52 in 0.2 mi SSE 6.9 mph - N/A Fog Fog
5:52 PM 44.1 °F 42.5 °F 43.0 °F 96% 29.51 in 0.2 mi South 3.5 mph - N/A Fog Fog
6:52 PM 42.1 °F 37.1 °F 41.0 °F 96% 29.50 in 0.2 mi SSW 8.1 mph - N/A Fog Fog
7:04 PM 41.0 °F 35.2 °F 39.2 °F 93% 29.51 in 0.5 mi SSW 9.2 mph 16.1 mph N/A Fog Fog
7:50 PM 41.0 °F 36.4 °F 41.0 °F 100% 29.51 in 1.5 mi WSW 6.9 mph - N/A   Overcast
7:52 PM 41.0 °F 35.2 °F 41.0 °F 100% 29.52 in 1.8 mi WSW 9.2 mph - N/A   Overcast
7:55 PM 42.8 °F 37.0 °F 41.0 °F 93% 29.51 in 3.0 mi West 10.4 mph 19.6 mph N/A   Overcast
8:12 PM 41.0 °F 35.2 °F 41.0 °F 100% 29.51 in 10.0 mi West 9.2 mph 19.6 mph N/A   Overcast
8:40 PM 39.2 °F 33.6 °F 39.2 °F 100% 29.51 in 10.0 mi West 8.1 mph - N/A   Overcast
8:52 PM 39.0 °F 30.6 °F 39.0 °F 100% 29.52 in 10.0 mi West 15.0 mph 21.9 mph N/A   Overcast
9:07 PM 39.2 °F 30.8 °F 37.4 °F 93% 29.53 in 7.0 mi West 15.0 mph 25.3 mph N/A   Overcast
9:52 PM 37.9 °F 30.9 °F 37.0 °F 97% 29.56 in 5.0 mi West 10.4 mph 24.2 mph N/A   Overcast
10:34 PM 35.6 °F 25.5 °F 35.6 °F 100% 29.56 in 10.0 mi West 17.3 mph 27.6 mph N/A   Overcast
10:47 PM 35.6 °F 27.1 °F 33.8 °F 93% 29.57 in 10.0 mi West 12.7 mph 29.9 mph N/A   Overcast
10:52 PM 35.1 °F 25.2 °F 34.0 °F 96% 29.58 in 10.0 mi West 16.1 mph 27.6 mph N/A   Overcast
11:38 PM 35.6 °F 26.2 °F 32.0 °F 87% 29.58 in 10.0 mi NW 15.0 mph 29.9 mph N/A   Overcast
11:50 PM 33.8 °F 25.8 °F 30.2 °F 87% 29.60 in 10.0 mi WNW 10.4 mph 34.5 mph 0.00 in   Mostly Cloudy
11:52 PM 34.0 °F 24.6 °F 30.9 °F 89% 29.61 in 10.0 mi WNW 13.8 mph 34.5 mph 0.00 in   Mostly Cloudy
11:59 PM 33.8 °F 24.3 °F 30.2 °F 87% 29.61 in 10.0 mi WNW 13.8 mph 26.5 mph N/A   Mostly Cloudy